When you browse on this site, cookies collect data to enhance your experience and personalize the content and advertising you see.
Visit our Privacy Policy to learn more. By continuing to use the site, you agree to this use of cookies and data.
  • în România
  • Lista ţărilor
  • Pe 7 zile
  • Temperatura apei
  • Meteo pe hartă
  • Widget-uri
  • user-avatar
    Intrare

    Meteo pe oră la Maskat

    Astăzi, 1 Iunie, Luni

    Timp Temperatura Precipitaţii Vânt Presiune Umiditate
    00:00 +38°C° 0 mm 2 m/s 747 mmHg 35%
    01:00 +38°C° 0 mm 3 m/s 747 mmHg 35%
    02:00 +37°C° 0 mm 3 m/s 747 mmHg 38%
    03:00 +37°C° 0 mm 2 m/s 747 mmHg 42%
    04:00 +36°C° 0 mm 2 m/s 747 mmHg 48%
    05:00 +36°C° 0 mm 3 m/s 747 mmHg 47%
    06:00 +37°C° 0 mm 3 m/s 748 mmHg 46%
    07:00 +37°C° 0 mm 3 m/s 749 mmHg 45%
    08:00 +39°C° 0 mm 3 m/s 749 mmHg 40%
    09:00 +41°C° 0 mm 2 m/s 749 mmHg 35%
    10:00 +43°C° 0 mm 1 m/s 749 mmHg 30%
    11:00 +43°C° 0 mm 2 m/s 748 mmHg 29%
    12:00 +45°C° 0 mm 3 m/s 748 mmHg 27%
    13:00 +47°C° 0 mm 4 m/s 748 mmHg 26%
    14:00 +45°C° 0 mm 4 m/s 747 mmHg 26%
    15:00 +44°C° 0 mm 3 m/s 747 mmHg 27%
    16:00 +44°C° 0 mm 3 m/s 746 mmHg 28%
    17:00 +43°C° 0 mm 3 m/s 747 mmHg 29%
    18:00 +42°C° 0 mm 4 m/s 747 mmHg 30%
    19:00 +41°C° 0 mm 4 m/s 747 mmHg 31%
    20:00 +39°C° 0 mm 3 m/s 747 mmHg 33%
    21:00 +39°C° 0 mm 3 m/s 747 mmHg 34%
    22:00 +38°C° 0 mm 3 m/s 747 mmHg 35%
    23:00 +38°C° 0 mm 3 m/s 747 mmHg 35%

    Mâine, 2 Iunie, Marţi

    Timp Temperatura Precipitaţii Vânt Presiune Umiditate
    00:00 +38°C° 0 mm 3 m/s 747 mmHg 35%
    01:00 +38°C° 0 mm 4 m/s 747 mmHg 34%
    02:00 +37°C° 0 mm 3 m/s 746 mmHg 35%
    03:00 +37°C° 0 mm 3 m/s 746 mmHg 35%
    04:00 +37°C° 0 mm 3 m/s 746 mmHg 35%
    05:00 +38°C° 0 mm 3 m/s 746 mmHg 34%
    06:00 +38°C° 0 mm 2 m/s 747 mmHg 33%
    07:00 +39°C° 0 mm 2 m/s 747 mmHg 32%
    08:00 +41°C° 0 mm 1 m/s 747 mmHg 28%
    09:00 +43°C° 0 mm 1 m/s 747 mmHg 25%
    10:00 +44°C° 0 mm 1 m/s 747 mmHg 22%
    11:00 +46°C° 0 mm 2 m/s 747 mmHg 21%
    12:00 +46°C° 0 mm 3 m/s 747 mmHg 20%
    13:00 +48°C° 0 mm 4 m/s 746 mmHg 20%
    14:00 +47°C° 0 mm 4 m/s 746 mmHg 20%
    15:00 +46°C° 0 mm 3 m/s 745 mmHg 20%
    16:00 +45°C° 0 mm 3 m/s 745 mmHg 20%
    17:00 +44°C° 0 mm 3 m/s 745 mmHg 22%
    18:00 +42°C° 0 mm 2 m/s 745 mmHg 23%
    19:00 +40°C° 0 mm 2 m/s 745 mmHg 24%
    20:00 +40°C° 0 mm 2 m/s 745 mmHg 26%
    21:00 +39°C° 0 mm 1 m/s 745 mmHg 27%
    22:00 +37°C° 0 mm 1 m/s 745 mmHg 28%
    23:00 +39°C° 0 mm 2 m/s 745 mmHg 28%

    Poimâine, 3 Iunie, Miercuri

    Timp Temperatura Precipitaţii Vânt Presiune Umiditate
    00:00 +39°C° 0 mm 3 m/s 745 mmHg 28%
    01:00 +40°C° 0 mm 4 m/s 744 mmHg 27%
    02:00 +38°C° 0 mm 3 m/s 744 mmHg 28%
    03:00 +38°C° 0 mm 3 m/s 744 mmHg 29%
    04:00 +38°C° 0 mm 3 m/s 744 mmHg 30%
    05:00 +38°C° 0 mm 2 m/s 744 mmHg 30%
    06:00 +39°C° 0 mm 2 m/s 745 mmHg 29%
    07:00 +40°C° 0 mm 1 m/s 745 mmHg 29%
    08:00 +42°C° 0 mm 2 m/s 745 mmHg 25%
    09:00 +45°C° 0 mm 2 m/s 745 mmHg 20%
    10:00 +47°C° 0 mm 3 m/s 745 mmHg 16%
    11:00 +46°C° 0 mm 3 m/s 745 mmHg 17%
    12:00 +47°C° 0 mm 4 m/s 745 mmHg 19%
    13:00 +45°C° 0 mm 4 m/s 744 mmHg 20%
    14:00 +45°C° 0 mm 4 m/s 744 mmHg 20%
    15:00 +45°C° 0 mm 4 m/s 743 mmHg 19%
    16:00 +45°C° 0 mm 4 m/s 743 mmHg 19%
    17:00 +44°C° 0 mm 4 m/s 743 mmHg 20%
    18:00 +43°C° 0 mm 3 m/s 743 mmHg 21%
    19:00 +40°C° 0 mm 3 m/s 743 mmHg 23%
    20:00 +41°C° 0 mm 4 m/s 744 mmHg 23%
    21:00 +41°C° 0 mm 4 m/s 744 mmHg 24%
    22:00 +40°C° 0 mm 5 m/s 744 mmHg 24%
    23:00 +40°C° 0 mm 4 m/s 744 mmHg 25%

    4 Iunie, Joi

    Timp Temperatura Precipitaţii Vânt Presiune Umiditate
    00:00 +38°C° 0 mm 4 m/s 744 mmHg 25%
    01:00 +38°C° 0 mm 4 m/s 744 mmHg 25%
    02:00 +37°C° 0 mm 4 m/s 743 mmHg 30%
    03:00 +36°C° 0 mm 3 m/s 743 mmHg 34%
    04:00 +35°C° 0 mm 3 m/s 743 mmHg 38%
    05:00 +36°C° 0 mm 3 m/s 744 mmHg 35%
    06:00 +38°C° 0 mm 3 m/s 744 mmHg 32%
    07:00 +39°C° 0 mm 3 m/s 745 mmHg 29%
    08:00 +42°C° 0 mm 4 m/s 745 mmHg 26%
    09:00 +45°C° 0 mm 5 m/s 745 mmHg 23%
    10:00 +47°C° 0 mm 6 m/s 745 mmHg 20%
    11:00 +47°C° 0 mm 5 m/s 745 mmHg 19%
    12:00 +47°C° 0 mm 5 m/s 744 mmHg 18%
    13:00 +48°C° 0 mm 5 m/s 744 mmHg 18%
    14:00 +46°C° 0 mm 5 m/s 744 mmHg 22%
    15:00 +44°C° 0 mm 4 m/s 743 mmHg 26%
    16:00 +43°C° 0 mm 3 m/s 743 mmHg 31%
    17:00 +42°C° 0 mm 3 m/s 743 mmHg 31%
    18:00 +40°C° 0 mm 3 m/s 743 mmHg 31%
    19:00 +40°C° 0 mm 4 m/s 743 mmHg 31%
    20:00 +40°C° 0 mm 4 m/s 743 mmHg 31%
    21:00 +40°C° 0 mm 4 m/s 744 mmHg 31%
    22:00 +40°C° 0 mm 4 m/s 744 mmHg 31%
    23:00 +37°C° 0 mm 3 m/s 744 mmHg 35%

    5 Iunie, Vineri

    Timp Temperatura Precipitaţii Vânt Presiune Umiditate
    00:00 +36°C° 0 mm 3 m/s 744 mmHg 38%
    01:00 +35°C° 0 mm 2 m/s 743 mmHg 42%
    02:00 +35°C° 0 mm 2 m/s 743 mmHg 43%
    03:00 +34°C° 0 mm 2 m/s 743 mmHg 45%
    04:00 +34°C° 0 mm 2 m/s 743 mmHg 46%
    05:00 +36°C° 0 mm 2 m/s 744 mmHg 40%
    06:00 +38°C° 0 mm 2 m/s 744 mmHg 34%
    07:00 +40°C° 0 mm 1 m/s 745 mmHg 28%
    08:00 +41°C° 0 mm 2 m/s 745 mmHg 26%
    09:00 +44°C° 0 mm 4 m/s 745 mmHg 23%
    10:00 +46°C° 0 mm 5 m/s 745 mmHg 21%
    11:00 +45°C° 0 mm 4 m/s 745 mmHg 22%
    12:00 +45°C° 0 mm 3 m/s 745 mmHg 23%
    13:00 +45°C° 0 mm 2 m/s 744 mmHg 25%
    14:00 +45°C° 0 mm 2 m/s 744 mmHg 24%
    15:00 +45°C° 0 mm 2 m/s 743 mmHg 24%
    16:00 +45°C° 0 mm 2 m/s 743 mmHg 24%
    17:00 +43°C° 0 mm 2 m/s 743 mmHg 24%
    18:00 +41°C° 0 mm 2 m/s 742 mmHg 23%
    19:00 +40°C° 0 mm 2 m/s 742 mmHg 23%
    20:00 +38°C° 0 mm 3 m/s 743 mmHg 34%
    21:00 +36°C° 0 mm 4 m/s 743 mmHg 45%
    22:00 +34°C° 0 mm 4 m/s 743 mmHg 56%
    23:00 +34°C° 0 mm 4 m/s 743 mmHg 56%

    6 Iunie, Sâmbătă

    Timp Temperatura Precipitaţii Vânt Presiune Umiditate
    00:00 +34°C° 0 mm 4 m/s 743 mmHg 57%
    01:00 +34°C° 0 mm 3 m/s 743 mmHg 57%
    02:00 +33°C° 0 mm 3 m/s 743 mmHg 57%
    03:00 +33°C° 0 mm 3 m/s 744 mmHg 58%
    04:00 +33°C° 0 mm 3 m/s 744 mmHg 58%
    05:00 +33°C° 0 mm 3 m/s 744 mmHg 57%
    06:00 +34°C° 0 mm 3 m/s 745 mmHg 56%
    07:00 +35°C° 0 mm 3 m/s 745 mmHg 54%
    08:00 +37°C° 0 mm 3 m/s 745 mmHg 50%
    09:00 +38°C° 0 mm 3 m/s 745 mmHg 45%
    10:00 +40°C° 0 mm 3 m/s 746 mmHg 41%
    11:00 +41°C° 0 mm 4 m/s 745 mmHg 41%
    12:00 +41°C° 0 mm 4 m/s 745 mmHg 41%
    13:00 +41°C° 0 mm 4 m/s 744 mmHg 41%
    14:00 +41°C° 0 mm 4 m/s 744 mmHg 40%
    15:00 +41°C° 0 mm 4 m/s 744 mmHg 39%
    16:00 +41°C° 0 mm 4 m/s 743 mmHg 38%
    17:00 +40°C° 0 mm 4 m/s 743 mmHg 44%
    18:00 +37°C° 0 mm 4 m/s 743 mmHg 51%
    19:00 +35°C° 0 mm 4 m/s 743 mmHg 58%
    20:00 +35°C° 0 mm 4 m/s 743 mmHg 62%
    21:00 +34°C° 0 mm 4 m/s 743 mmHg 65%
    22:00 +33°C° 0 mm 4 m/s 744 mmHg 69%
    23:00 +33°C° 0 mm 5 m/s 744 mmHg 71%
    Arată mai mult